Regional Weather Roundup
Issued by NWS

Home | Current Version | Previous Version | Text Only | Print | Product List | Glossary On
Versions: 1 2 3 4 5 6 7 8 9 10 11 12 13 14 15 16 17 18 19 20 21 22 23 24 25 26 27 28 29 30 31 32 33 34 35 36 37 38 39 40 41 42 43 44 45 46 47 48 49 50
000
ASUS43 KOAX 260702
RWRNE

WEATHER ROUNDUP FOR NEBRASKA
NATIONAL WEATHER SERVICE OMAHA NE
200 AM CDT THU MAR 26 2015

NOTES: SATELLITE DATA IS BEING USED TO AUGMENT CLOUD COVER ABOVE
       12000 FEET.
       "FAIR" INDICATES FEW OR NO CLOUDS BELOW 12,000 FEET WITH NO
       SIGNIFICANT WEATHER AND/OR OBSTRUCTIONS TO VISIBILITY.

  * THESE STATIONS DO NOT REPORT WEATHER SUCH AS RAIN...SNOW OR FOG.

NEZ001>004-019>022-054>056-260800-
NEBRASKA PANHANDLE

CITY           SKY/WX    TMP DP  RH WIND       PRES   REMARKS
SCOTTSBLUFF    FAIR      26  22  84 NE3       30.21F
ALLIANCE       FAIR      23  17  78 CALM      30.20F
CHADRON        FAIR      24  20  84 SW5       30.20F WCI  18
SIDNEY         MOCLDY    25  20  81 NW6       30.21F WCI  18
$$

NEZ057>060-069>072-079>082-260800-
SOUTHWEST NEBRASKA

CITY           SKY/WX    TMP DP  RH WIND       PRES   REMARKS
NORTH PLATTE   FAIR      23  17  78 CALM      30.24F
IMPERIAL         N/A     29  22  75 W3        30.25S
MCCOOK         FAIR      26  19  74 W5        30.26S WCI  20
$$

NEZ005>010-023>029-035>040-094-260800-
NORTH CENTRAL NEBRASKA

CITY           SKY/WX    TMP DP  RH WIND       PRES   REMARKS
VALENTINE      FAIR      21  17  84 W3        30.22F
BROKEN BOW     FAIR      20  15  81 CALM      30.22F
ORD            FAIR      23  16  74 CALM      30.23S
$$

NEZ041-046>049-061>064-073>077-083>087-260800-
SOUTH CENTRAL NEBRASKA

CITY           SKY/WX    TMP DP  RH WIND       PRES   REMARKS
GRAND ISLAND   FAIR      24  19  81 W7        30.25F WCI  16
HASTINGS       FAIR      26  20  77 NW8       30.23F WCI  18
KEARNEY *      FAIR      27  18  69 NW7       30.24F WCI  19
$$

NEZ011>018-030>034-042>045-260800-
NORTHEAST NEBRASKA

CITY           SKY/WX    TMP DP  RH WIND       PRES   REMARKS
NORFOLK        FAIR      30  22  72 NW3       30.22F
ALBION         FAIR      22  18  83 CALM      30.24S
BLAIR          FAIR      33  25  72 N7        30.20F WCI  27
COLUMBUS *     FAIR      27  18  69 NW7       30.25F WCI  19
TEKAMAH        FAIR      29  23  78 W14       30.22F WCI  18
$$

NEZ050>053-065>068-078-088>093-260800-
SOUTHEAST NEBRASKA

CITY           SKY/WX    TMP DP  RH WIND       PRES   REMARKS
LINCOLN        FAIR      30  25  81 N8        30.22F WCI  22
OMAHA EPPLEY   FAIR      31  28  89 N6        30.20F WCI  25
FALLS CITY     FAIR      34  29  82 NW8       30.17F WCI  27
$$

NEZ044-045-051>053-067-260800-
OMAHA AREA

CITY           SKY/WX    TMP DP  RH WIND       PRES   REMARKS
OMAHA EPPLEY   FAIR      31  28  89 N6        30.20F WCI  25
BLAIR          FAIR      33  25  72 N7        30.20F WCI  27
OFFUTT AFB     FAIR      30  24  81 N6        30.19F WCI  24
$$


USA.gov is the U.S. government's official web portal to all federal, state and local government web resources and services.